Temp
80 79 79 79 79 79 78 77 77 77 76 77 76 76 76 77 77 77 77 77 76 76 74 74 74 73 74 73 72 72 72 72 72 71 70 70 69 69 70 68 67 67
80 80 80 79 79 79 79 79 78 78 77 77 77 77 77 77 77 78 77 76 77 77 75 74 73 73 72 73 72 72 71 71 71 72 71 70 70 69 70 68 68 67
80 79 79 79 79 78 79 79 78 78 78 78 78 77 77 78 77 77 77 77 77 77 75 74 73 73 72 72 72 72 72 70 71 71 71 70 70 70 70 70 68 68
80 80 80 80 80 79 79 79 78 78 78 77 77 78 78 78 78 77 77 78 76 76 75 74 74 74 73 71 72 72 72 71 72 71 70 70 70 70 70 69 70 69
80 80 80 80 80 80 79 79 78 78 78 78 78 78 77 77 77 77 77 77 76 75 74 74 74 74 73 71 71 71 71 71 71 70 70 70 70 70 70 70 69 69
80 81 80 80 80 80 79 79 79 79 78 78 78 78 78 77 77 77 77 77 76 76 75 74 74 74 73 72 71 71 71 71 71 70 70 70 70 70 71 70 69 68
80 80 80 81 80 80 79 79 79 79 79 79 79 78 78 77 77 77 77 77 76 75 75 74 73 73 73 72 71 70 70 71 70 70 70 70 70 69 70 70 69 69
81 81 81 81 80 80 80 79 79 79 79 79 78 78 78 78 77 77 77 77 76 75 75 75 74 73 73 72 71 71 70 71 71 70 69 70 69 70 70 70 70 68
81 81 80 80 80 80 80 80 80 80 80 79 79 79 79 79 78 77 77 77 76 75 75 75 74 74 73 72 72 71 71 71 72 71 70 70 69 70 71 71 69 69
80 81 81 81 80 81 80 81 81 80 80 79 79 80 78 79 79 78 77 76 76 75 75 75 74 74 73 73 72 72 71 71 71 71 71 71 71 70 70 70 70 68
80 81 80 80 81 81 81 82 82 82 81 80 80 79 79 78 78 78 77 76 76 75 75 74 74 74 73 73 73 73 72 72 71 71 71 71 71 71 72 69 69 69
80 80 80 80 81 81 82 82 82 82 81 81 80 80 79 79 78 78 77 76 76 76 76 75 75 74 73 73 73 73 72 72 72 71 71 71 71 71 70 69 69 69
80 80 81 81 81 81 82 82 82 83 82 81 81 81 80 79 79 78 78 77 76 76 76 75 75 74 74 73 73 73 72 71 71 71 71 71 71 71 71 70 70 70
81 81 81 81 81 81 81 82 82 82 81 81 81 80 80 79 79 78 78 77 77 76 76 76 75 74 74 73 73 73 72 71 71 71 71 71 70 71 71 71 71 71
81 81 81 81 81 81 81 81 81 81 81 81 80 80 81 81 80 79 77 76 76 76 76 75 74 74 74 74 72 72 72 72 71 71 71 70 70 70 70 71 71 72
81 81 81 81 80 80 80 81 81 81 81 80 80 80 80 80 79 79 78 77 76 75 75 75 74 74 71 66 69 73 72 72 72 71 71 71 70 70 71 70 71 72
81 80 80 80 80 80 80 80 80 81 80 80 80 79 79 79 79 78 78 78 77 76 75 75 75 75 67 64 66 68 72 72 71 71 71 71 71 70 70 70 71 71
81 80 80 80 80 80 80 80 80 80 79 79 79 79 79 79 78 78 78 78 77 76 76 75 75 69 65 64 65 66 69 73 72 72 71 71 71 71 71 71 70 71
81 80 80 80 80 80 80 80 80 79 79 79 79 79 79 78 78 78 77 78 77 76 76 76 76 68 64 63 64 65 66 71 73 73 72 71 71 71 70 70 69 70
81 81 80 80 80 80 80 80 79 79 79 80 80 79 79 78 79 78 78 77 77 76 76 76 76 67 63 62 62 63 65 68 74 73 72 71 71 71 71 70 69 69
81 80 80 80 80 80 80 79 79 79 79 80 80 79 79 78 79 78 78 77 77 77 76 76 77 66 61 60 60 61 64 66 74 73 71 71 71 71 70 70 70 70
81 81 80 80 80 80 79 79 79 79 79 79 79 79 80 80 79 79 78 77 77 76 76 75 77 62 60 59 60 60 63 69 73 72 70 70 71 71 71 71 71 71
82 81 80 80 80 79 79 79 79 79 79 80 79 79 79 79 79 79 79 78 76 76 76 75 72 61 59 58 59 59 62 71 71 72 71 70 70 71 70 70 70 70
83 82 81 80 80 79 79 80 80 80 80 80 79 79 79 79 80 79 78 78 76 76 76 74 71 60 57 56 58 58 63 71 71 70 70 70 70 69 69 68 70 75
83 83 82 81 80 80 80 80 80 80 80 80 80 80 79 79 78 78 76 76 77 76 72 73 69 60 55 57 57 57 64 72 71 70 69 69 69 67 66 65 66 71
84 82 82 81 81 81 81 81 81 81 80 79 80 80 79 77 76 76 75 73 73 73 73 72 69 65 59 56 56 56 60 71 70 69 69 69 69 67 65 63 63 64
MSLP
1010.85 1011.17 1011.53 1011.81 1011.97 1012.09 1012.37 1012.73 1012.89 1013.13 1013.41 1013.57 1013.93 1014.09 1014.13 1014.13 1014.29 1014.57 1014.73 1014.93 1015.13 1015.41 1015.65 1015.81 1015.93 1016.13 1016.29 1016.45 1016.57 1016.73 1016.97 1017.09 1017.21 1017.33 1017.53 1017.65 1017.73 1017.81 1018.01 1018.13 1018.29 1018.29
1010.57 1010.73 1011.01 1011.29 1011.57 1011.73 1011.93 1012.05 1012.37 1012.61 1012.93 1013.09 1013.25 1013.45 1013.65 1013.85 1014.05 1014.21 1014.53 1014.77 1014.89 1015.09 1015.25 1015.53 1015.69 1015.85 1016.05 1016.25 1016.41 1016.61 1016.85 1017.01 1017.17 1017.13 1017.37 1017.53 1017.53 1017.65 1017.81 1017.93 1018.05 1018.09
1010.21 1010.49 1010.77 1011.09 1011.29 1011.49 1011.65 1011.77 1012.01 1012.21 1012.45 1012.57 1012.77 1013.05 1013.37 1013.49 1013.85 1013.97 1014.17 1014.41 1014.69 1014.85 1015.05 1015.21 1015.45 1015.61 1015.81 1015.89 1016.09 1016.37 1016.61 1016.85 1017.01 1017.01 1017.13 1017.29 1017.33 1017.49 1017.53 1017.65 1017.81 1017.93
1009.85 1009.93 1010.21 1010.49 1010.73 1011.09 1011.21 1011.57 1011.81 1012.01 1012.13 1012.49 1012.65 1012.73 1012.97 1013.21 1013.45 1013.77 1013.97 1014.13 1014.45 1014.65 1014.81 1015.01 1015.13 1015.33 1015.53 1015.65 1015.85 1016.13 1016.29 1016.45 1016.49 1016.69 1016.97 1017.05 1017.09 1017.21 1017.33 1017.45 1017.57 1017.77
1009.37 1009.61 1009.77 1010.05 1010.29 1010.57 1010.89 1011.25 1011.49 1011.69 1011.85 1011.97 1012.21 1012.41 1012.73 1013.01 1013.29 1013.57 1013.77 1013.97 1014.13 1014.41 1014.61 1014.77 1014.85 1015.05 1015.25 1015.49 1015.61 1015.93 1016.09 1016.29 1016.37 1016.53 1016.77 1016.97 1016.93 1017.01 1017.09 1017.25 1017.49 1017.65
1008.85 1009.01 1009.29 1009.65 1009.97 1010.33 1010.69 1010.93 1011.05 1011.25 1011.49 1011.77 1011.89 1012.01 1012.29 1012.53 1012.89 1013.17 1013.41 1013.69 1013.89 1014.09 1014.33 1014.45 1014.65 1014.77 1014.93 1015.21 1015.45 1015.61 1015.81 1016.09 1016.17 1016.33 1016.57 1016.73 1016.81 1016.77 1016.81 1017.05 1017.25 1017.45
1008.41 1008.69 1009.05 1009.33 1009.73 1009.93 1010.29 1010.49 1010.65 1010.77 1010.97 1011.09 1011.45 1011.77 1011.89 1012.29 1012.53 1012.77 1013.01 1013.25 1013.53 1013.77 1013.97 1014.13 1014.33 1014.57 1014.69 1014.93 1015.21 1015.45 1015.61 1015.69 1015.93 1016.13 1016.33 1016.49 1016.61 1016.73 1016.69 1016.77 1016.97 1017.13
1007.81 1008.05 1008.53 1008.93 1009.37 1009.65 1009.97 1010.13 1010.29 1010.41 1010.49 1010.85 1011.17 1011.25 1011.45 1011.81 1012.09 1012.33 1012.57 1012.85 1013.17 1013.41 1013.57 1013.69 1013.93 1014.17 1014.37 1014.65 1015.01 1015.25 1015.45 1015.49 1015.69 1015.85 1016.05 1016.21 1016.37 1016.53 1016.57 1016.61 1016.77 1017.01
1007.13 1007.61 1008.05 1008.57 1009.01 1009.25 1009.53 1009.65 1009.81 1010.01 1010.13 1010.49 1010.69 1010.93 1011.05 1011.29 1011.61 1011.93 1012.21 1012.45 1012.73 1012.97 1013.21 1013.41 1013.61 1013.85 1014.05 1014.29 1014.61 1014.89 1015.09 1015.25 1015.21 1015.41 1015.69 1015.93 1016.13 1016.13 1016.21 1016.41 1016.73 1016.93
1006.65 1006.97 1007.61 1008.09 1008.53 1008.65 1008.97 1009.09 1009.29 1009.57 1009.73 1010.01 1010.21 1010.45 1010.81 1010.89 1011.13 1011.45 1011.85 1012.09 1012.33 1012.57 1012.81 1013.01 1013.33 1013.49 1013.69 1013.89 1014.09 1014.33 1014.61 1014.81 1014.93 1015.05 1015.21 1015.37 1015.57 1015.81 1016.01 1016.29 1016.57 1016.89
1006.25 1006.53 1007.05 1007.49 1007.85 1008.05 1008.33 1008.57 1008.81 1009.09 1009.29 1009.53 1009.85 1010.13 1010.29 1010.61 1010.89 1011.05 1011.45 1011.73 1011.89 1012.05 1012.37 1012.61 1012.77 1013.01 1013.29 1013.53 1013.69 1013.81 1014.05 1014.29 1014.53 1014.73 1014.89 1015.01 1015.17 1015.45 1015.81 1016.17 1016.45 1016.65
1005.77 1006.09 1006.41 1006.73 1007.09 1007.45 1007.73 1008.01 1008.25 1008.57 1008.85 1009.05 1009.25 1009.65 1009.93 1010.13 1010.45 1010.69 1010.85 1011.13 1011.29 1011.53 1011.77 1012.01 1012.25 1012.53 1012.77 1013.01 1013.21 1013.41 1013.69 1013.89 1014.13 1014.41 1014.61 1014.81 1015.05 1015.37 1015.61 1015.81 1016.05 1016.21
1005.25 1005.41 1005.61 1006.01 1006.41 1006.69 1007.05 1007.49 1007.81 1008.01 1008.33 1008.61 1008.69 1009.05 1009.49 1009.81 1009.93 1010.21 1010.29 1010.57 1010.85 1011.13 1011.37 1011.53 1011.85 1012.13 1012.41 1012.65 1012.85 1013.13 1013.41 1013.73 1014.01 1014.21 1014.45 1014.69 1014.89 1015.09 1015.21 1015.37 1015.57 1015.73
1004.49 1004.65 1005.01 1005.29 1005.65 1006.13 1006.65 1006.97 1007.25 1007.57 1007.81 1008.01 1008.37 1008.77 1009.01 1009.17 1009.45 1009.69 1009.89 1010.25 1010.53 1010.73 1010.85 1011.17 1011.53 1011.81 1012.01 1012.25 1012.57 1012.85 1013.17 1013.49 1013.73 1014.01 1014.29 1014.53 1014.65 1014.77 1014.85 1015.01 1015.13 1015.29
1003.85 1004.21 1004.53 1004.89 1005.25 1005.77 1006.21 1006.53 1006.77 1007.05 1007.29 1007.65 1007.97 1008.21 1008.33 1008.57 1008.85 1009.33 1009.85 1010.09 1010.21 1010.37 1010.65 1010.89 1011.21 1011.37 1011.53 1011.85 1012.29 1012.65 1012.85 1013.17 1013.45 1013.73 1013.97 1014.25 1014.45 1014.53 1014.61 1014.69 1014.85 1014.97
1003.37 1003.77 1004.17 1004.49 1004.97 1005.33 1005.61 1005.89 1006.25 1006.57 1006.89 1007.25 1007.49 1007.69 1007.97 1008.25 1008.65 1008.97 1009.33 1009.57 1009.89 1010.13 1010.41 1010.61 1010.77 1010.85 1011.01 1011.33 1011.57 1011.97 1012.45 1012.81 1013.13 1013.41 1013.65 1013.85 1014.09 1014.37 1014.49 1014.53 1014.61 1014.69
1003.01 1003.37 1003.69 1004.21 1004.37 1004.69 1005.01 1005.41 1005.77 1006.05 1006.45 1006.77 1007.09 1007.41 1007.73 1007.97 1008.29 1008.69 1008.85 1009.01 1009.33 1009.73 1010.09 1010.21 1010.29 1010.33 1010.53 1010.93 1011.33 1011.69 1012.09 1012.53 1012.85 1013.13 1013.25 1013.53 1013.81 1014.09 1014.29 1014.37 1014.41 1014.45
1002.41 1002.81 1003.33 1003.61 1003.93 1004.25 1004.49 1004.77 1005.21 1005.65 1006.09 1006.41 1006.77 1007.17 1007.37 1007.61 1008.01 1008.13 1008.25 1008.53 1008.89 1009.25 1009.57 1009.73 1009.81 1009.73 1010.17 1010.69 1011.09 1011.45 1011.69 1012.05 1012.45 1012.77 1012.97 1013.25 1013.37 1013.61 1013.81 1014.05 1014.17 1014.25
1001.81 1002.41 1002.77 1003.17 1003.37 1003.57 1003.93 1004.41 1004.89 1005.29 1005.69 1006.09 1006.41 1006.53 1006.93 1007.33 1007.45 1007.65 1007.93 1008.09 1008.49 1008.89 1009.09 1009.17 1009.25 1009.37 1009.89 1010.33 1010.73 1011.17 1011.49 1011.77 1012.09 1012.25 1012.61 1012.89 1013.13 1013.33 1013.57 1013.81 1013.97 1014.09
1001.29 1001.77 1002.25 1002.49 1002.77 1003.17 1003.61 1004.05 1004.49 1004.81 1005.05 1005.37 1005.85 1006.21 1006.57 1006.81 1006.97 1007.29 1007.49 1007.89 1008.01 1008.29 1008.49 1008.61 1008.73 1008.89 1009.37 1009.89 1010.45 1010.93 1011.25 1011.45 1011.61 1011.93 1012.25 1012.53 1012.77 1012.97 1013.21 1013.45 1013.61 1013.85
1000.85 1001.21 1001.61 1001.93 1002.33 1002.73 1003.21 1003.61 1003.93 1004.33 1004.81 1005.05 1005.41 1005.77 1006.13 1006.37 1006.53 1006.85 1007.05 1007.29 1007.53 1007.73 1008.05 1008.21 1008.05 1008.33 1009.05 1009.73 1010.29 1010.65 1010.89 1011.13 1011.29 1011.69 1012.01 1012.21 1012.37 1012.57 1012.77 1012.97 1013.13 1013.37
1000.13 1000.61 1000.97 1001.41 1001.89 1002.29 1002.77 1003.13 1003.45 1003.85 1004.29 1004.57 1005.05 1005.37 1005.49 1005.73 1006.05 1006.29 1006.69 1006.89 1007.01 1007.33 1007.69 1007.73 1007.61 1008.33 1008.97 1009.53 1009.97 1010.33 1010.61 1011.01 1011.17 1011.53 1011.81 1012.05 1012.21 1012.29 1012.41 1012.49 1012.65 1012.97
999.33 999.85 1000.41 1000.85 1001.25 1001.81 1002.21 1002.53 1002.97 1003.41 1003.77 1004.13 1004.81 1005.05 1005.37 1005.57 1005.73 1005.81 1005.89 1006.33 1006.73 1006.97 1007.17 1007.29 1007.97 1008.29 1008.81 1009.37 1009.77 1010.09 1010.61 1010.89 1011.09 1011.33 1011.61 1011.85 1011.93 1011.93 1012.05 1012.29 1012.53 1012.77
998.57 999.05 999.69 1000.17 1000.69 1001.17 1001.45 1001.81 1002.25 1002.77 1003.29 1003.57 1004.25 1004.73 1005.05 1005.05 1005.09 1005.45 1005.73 1005.93 1006.33 1006.69 1006.89 1007.61 1007.97 1008.37 1008.61 1009.05 1009.41 1009.85 1010.17 1010.53 1010.89 1011.21 1011.45 1011.65 1011.77 1011.89 1012.05 1012.21 1012.29 1012.37
997.85 998.37 998.93 999.49 1000.05 1000.37 1000.81 1001.49 1001.93 1002.33 1002.69 1003.25 1003.69 1004.05 1004.33 1004.49 1004.89 1005.33 1005.61 1005.89 1006.13 1006.49 1006.89 1007.37 1007.85 1008.37 1008.57 1008.85 1009.29 1009.69 1010.09 1010.29 1010.69 1011.09 1011.49 1011.65 1011.81 1012.09 1012.09 1012.21 1012.21 1012.17
997.37 997.97 998.41 998.97 999.45 999.89 1000.37 1000.85 1001.29 1001.97 1002.53 1002.93 1003.25 1003.53 1004.01 1004.37 1004.73 1005.13 1005.61 1005.97 1006.09 1006.41 1006.81 1007.13 1007.73 1008.37 1008.73 1008.85 1009.13 1009.49 1009.73 1009.97 1010.41 1011.01 1011.41 1011.53 1011.69 1011.97 1012.29 1012.37 1012.41 1012.53
Wind_Speed
13 11 12 11 11 10 10 10 9 10 10 9 10 10 11 10 10 10 10 9 9 9 8 8 8 7 7 8 8 7 7 8 7 6 7 6 6 5 5 4 3 4
14 13 12 11 10 9 9 10 10 10 10 10 10 10 9 9 10 11 10 10 10 10 9 8 8 8 8 8 8 8 7 7 8 5 7 7 7 6 6 5 5 4
14 13 13 13 12 12 12 10 10 10 10 11 10 10 10 9 10 10 10 11 10 10 9 9 8 8 8 8 9 8 8 8 8 7 7 8 7 7 6 5 4 6
15 15 14 14 13 12 11 10 10 9 9 9 10 10 10 10 10 11 11 11 11 10 9 9 10 9 8 8 8 8 8 9 9 7 7 6 7 7 7 5 5 6
16 15 14 13 12 11 11 12 12 11 11 12 11 10 10 10 11 11 11 11 10 10 9 10 9 9 9 8 8 8 8 8 7 7 8 8 7 7 6 6 6 6
15 15 14 13 12 12 12 12 13 12 12 12 13 11 11 12 12 12 12 12 11 11 11 10 10 10 9 9 8 8 8 8 8 8 8 9 8 7 6 6 6 6
17 15 15 13 12 13 13 12 12 12 13 12 11 12 11 12 12 13 13 12 12 12 12 11 11 11 9 9 9 8 8 9 8 8 10 9 7 8 6 6 7 7
17 15 14 13 14 13 13 13 12 13 13 11 13 13 12 13 13 12 12 13 13 13 12 12 12 11 10 9 10 10 9 7 9 9 9 9 8 9 8 7 6 7
17 16 15 15 15 14 15 14 13 13 12 13 13 12 12 12 13 13 13 14 13 13 12 12 12 12 10 10 10 11 11 10 10 11 11 10 10 10 10 7 7 7
17 16 17 16 16 15 16 15 14 13 12 13 13 12 13 12 12 13 13 14 14 13 13 13 12 12 11 11 12 12 12 12 11 11 11 11 11 10 8 8 8 6
18 17 17 17 17 15 17 16 15 14 13 14 13 13 13 12 12 12 13 14 14 15 14 14 14 13 13 12 11 11 12 12 12 11 11 11 11 9 7 6 7 8
18 17 18 19 18 17 17 17 15 14 14 13 14 14 13 13 14 13 13 15 15 14 14 14 13 13 13 13 13 12 12 11 11 10 10 10 9 7 6 7 7 8
18 18 18 18 18 17 16 15 15 15 15 15 14 14 14 14 14 15 13 14 14 13 14 14 14 13 13 13 12 12 12 11 10 10 9 8 7 7 7 8 8 8
18 18 17 17 16 16 15 15 15 15 15 14 13 14 15 15 15 15 13 12 13 13 13 12 12 12 12 12 11 12 11 10 10 9 9 8 7 8 8 9 9 8
17 15 15 15 16 16 16 16 16 15 14 13 13 14 13 14 14 13 12 13 12 13 12 11 12 12 11 12 12 12 11 11 11 10 10 9 8 8 8 9 8 8
16 15 15 15 16 17 17 16 16 15 15 15 15 15 14 13 12 12 13 14 14 13 12 11 11 10 13 18 16 12 11 10 9 10 10 10 10 8 8 8 8 8
16 16 15 16 17 16 16 16 17 15 15 15 14 14 14 13 13 13 14 14 14 13 13 12 11 11 18 18 18 18 12 10 10 10 10 10 9 9 10 9 8 7
17 16 16 17 16 17 17 17 16 15 15 14 14 14 13 12 13 15 15 13 12 13 13 13 12 15 17 18 18 19 16 11 10 9 9 9 10 10 9 8 8 8
17 17 17 16 17 17 16 15 16 16 15 14 15 14 12 13 15 15 14 13 13 14 14 14 13 15 17 19 19 19 19 15 9 10 9 9 9 9 8 8 7 7
17 18 17 18 17 16 15 16 16 17 15 14 13 12 13 14 14 15 13 13 14 14 14 13 14 15 19 19 19 19 19 17 11 10 9 8 9 9 8 8 8 8
17 18 18 17 17 16 16 16 16 15 14 14 13 14 14 15 15 15 14 13 13 13 13 13 14 17 18 18 18 20 20 18 11 8 8 8 8 8 8 9 8 8
18 18 18 17 17 16 17 17 16 16 16 13 12 12 12 12 11 12 13 14 13 13 13 15 11 14 17 19 20 20 21 13 10 9 8 8 8 8 8 8 8 7
19 19 18 18 17 17 18 17 16 16 14 11 12 13 13 13 13 14 13 13 13 13 15 13 5 13 18 19 19 21 16 10 10 9 8 8 9 8 8 6 4 5
19 19 19 18 17 18 19 17 15 13 13 13 14 14 14 14 14 12 10 11 12 13 12 8 6 11 19 19 20 20 17 12 10 9 9 8 7 4 4 5 6 12
19 19 18 18 18 18 16 16 16 15 13 11 12 12 13 11 10 10 9 8 9 9 9 9 6 10 17 19 19 19 16 10 9 8 8 8 6 5 4 5 3 7
17 18 17 17 18 17 15 16 13 12 13 13 13 11 10 9 9 9 9 7 6 7 8 8 8 8 12 17 19 19 19 11 7 8 8 8 7 7 6 3 3 4
Wind_Direction
195 194 195 197 199 196 189 187 187 181 185 183 186 191 191 188 181 185 185 182 184 183 180 185 187 189 187 184 183 175 178 185 184 183 186 189 198 196 198 204 192 175
196 195 196 198 200 198 195 191 188 187 186 187 189 187 188 180 185 183 184 184 186 192 188 186 187 185 184 181 179 176 181 182 188 184 186 194 201 194 198 194 196 197
196 197 196 197 199 198 196 192 188 190 187 189 185 182 183 183 182 185 184 184 188 192 191 191 190 189 183 180 176 179 180 184 188 187 185 196 199 194 203 191 200 186
199 198 198 199 199 196 195 190 190 189 187 184 187 184 182 183 182 184 185 186 188 191 193 192 196 191 186 180 175 182 184 186 188 181 188 198 201 194 202 192 200 204
198 200 200 200 199 195 193 194 191 189 188 188 185 183 181 182 183 186 186 189 187 190 191 195 195 193 186 182 177 180 186 188 190 184 190 200 208 196 203 192 201 207
200 201 200 198 196 192 195 198 196 191 189 187 189 183 185 183 184 187 188 189 190 190 193 195 192 194 185 184 181 184 183 188 190 186 194 201 207 205 199 194 197 205
197 198 199 196 196 197 198 199 197 194 193 190 183 191 184 186 187 189 189 191 189 192 193 193 192 191 189 182 186 189 189 191 185 188 195 204 201 208 210 198 199 202
195 197 195 193 196 198 201 200 199 197 194 186 192 193 187 188 189 189 191 191 192 195 195 195 193 190 188 185 188 192 196 194 192 192 196 201 200 207 209 207 196 200
192 193 191 193 196 199 202 201 200 197 192 192 193 193 192 191 189 189 191 192 194 195 195 197 194 192 190 188 191 193 196 200 201 199 199 201 202 208 206 200 199 203
192 191 189 192 197 200 203 203 200 198 194 196 194 191 193 195 191 190 191 194 196 196 197 197 195 195 193 193 194 195 198 202 203 205 207 207 207 207 202 197 205 205
193 190 190 193 198 200 203 202 201 198 197 198 193 196 195 192 196 193 194 196 199 198 197 198 198 195 195 196 198 198 200 202 204 206 210 211 211 209 199 192 200 210
193 191 192 194 197 200 201 201 201 199 198 199 196 196 193 196 195 195 198 200 201 199 198 199 198 197 197 198 199 199 202 204 205 207 210 212 212 206 196 194 199 206
194 195 193 194 196 199 199 200 202 201 199 200 198 197 194 196 198 199 201 200 202 200 201 199 198 198 199 200 200 199 201 203 205 206 207 208 209 201 198 198 202 203
197 196 194 194 195 197 198 200 202 203 203 200 196 199 199 198 198 201 201 200 202 203 203 199 199 200 202 201 200 199 200 204 203 203 204 206 204 204 202 204 206 206
195 196 195 194 194 195 198 200 202 204 203 199 197 201 203 203 201 198 197 203 206 204 202 200 201 203 201 197 196 199 200 202 201 202 203 204 206 206 205 208 210 210
193 193 194 193 193 196 198 200 201 202 202 202 200 201 202 201 199 198 200 204 205 204 201 202 205 205 202 197 194 194 196 199 199 204 203 206 207 210 215 210 211 211
191 195 192 194 196 197 198 199 201 201 202 203 201 199 200 199 197 199 204 206 204 201 202 205 207 207 199 194 194 193 191 196 198 202 206 205 202 207 214 214 214 213
194 193 193 196 194 198 199 199 200 201 202 201 200 199 199 196 198 203 206 204 204 203 206 207 210 208 196 190 190 192 192 195 198 202 205 203 206 209 212 211 213 215
192 192 196 195 197 198 198 197 199 202 202 199 202 199 195 198 202 203 205 204 202 204 209 209 215 204 192 188 188 189 193 195 200 206 202 202 203 208 209 207 208 215
191 194 195 197 197 196 195 197 199 203 201 199 199 197 199 202 204 204 203 201 204 206 210 210 215 197 189 185 184 186 193 197 207 202 203 201 202 203 204 205 207 208
192 194 196 196 194 194 195 198 200 200 199 199 197 198 200 203 204 205 204 202 203 205 207 212 218 193 181 178 180 186 194 199 205 197 201 203 203 200 199 204 206 206
192 195 196 194 193 193 195 198 197 196 199 195 194 199 204 206 207 206 205 204 203 200 206 217 212 168 172 173 180 186 192 198 203 197 199 202 205 202 202 204 205 200
193 193 193 192 192 192 196 196 195 196 196 188 194 198 200 202 205 206 206 202 199 200 208 215 168 165 167 173 180 187 186 200 200 201 200 202 208 210 205 198 190 181
194 192 192 191 190 194 195 194 192 191 192 187 193 196 200 203 204 204 201 202 199 205 206 194 168 164 168 174 181 185 186 194 198 198 205 203 213 199 164 170 189 197
193 193 192 190 191 195 191 189 190 190 188 183 194 197 202 201 195 196 196 194 201 200 178 172 147 170 173 174 181 184 187 196 189 196 197 205 191 166 143 137 148 166
193 192 191 190 192 190 189 190 186 182 182 187 193 194 195 190 184 186 182 178 160 152 158 157 148 158 178 176 183 184 190 188 184 184 199 201 195 176 159 143 131 127